Weather Roundup
Issued by NWS Springfield, MO

Home | Current Version | Previous Version | Text Only | Print | Product List | Glossary On
Versions: 1 2 3 4 5 6 7 8 9 10 11 12 13 14 15 16 17 18 19 20 21 22 23 24 25 26 27 28 29 30 31 32 33 34 35 36 37 38 39 40 41 42 43 44 45 46 47 48 49 50
000
NZUS99 KSGF 271057
HRRSGF

HOURLY WEATHER
NATIONAL WEATHER SERVICE SPRINGFIELD MO
600 AM CDT TUE SEP 27 2016

......SGF CWA......

CITY           SKY/WX    TMP DP  RH WIND       PRES   REMARKS
SPRINGFIELD    CLEAR     48  43  82 S3        30.10S
JOPLIN         CLEAR     50  45  83 CALM      30.12S
WEST PLAINS    CLEAR     50  41  71 W3        30.11S
ROLLA          CLEAR     49  44  83 SW9       30.06S
OSAGE BEACH    FOG       46  46 100 CALM      30.08F VSB 1

......SURROUNDING SGF CWA......

CITY           SKY/WX    TMP DP  RH WIND       PRES   REMARKS
CHANUTE        CLEAR     51  46  83 SW7       30.10F
PARSONS        CLEAR     45  44  97 CALM      30.13S
COFFEYVILLE    CLEAR     47  46  97 CALM      30.12F
EMPORIA        CLEAR     52  46  80 SW3       30.09S
HARRISON AR    CLEAR     46  42  86 CALM      30.12F

......KANSAS AND MISSOURI......

CITY           SKY/WX    TMP DP  RH WIND       PRES   REMARKS
KANSAS CTY INT CLEAR     51  45  79 SW8       30.05F
SEDALIA        CLEAR     54  45  71 SW9       30.06F
ST JOSEPH      CLEAR     51  48  89 S5        30.04F
ST LOUIS       CLEAR     56  44  64 W6        30.03S
WICHITA        CLEAR     53  46  77 S5        30.12S
TOPEKA         CLEAR     50  47  89 S5        30.07F
OLATHE         CLEAR     52  46  80 SW5       30.08S

......TENNESSEE......

CITY           SKY/WX    TMP DP  RH WIND       PRES   REMARKS
MEMPHIS        NOT AVBL
NASHVILLE      PTCLDY    56  52  86 NW3       30.06S

......ARKANSAS.......

CITY           SKY/WX    TMP DP  RH WIND       PRES   REMARKS
FAYETTEVILLE   CLEAR     45  45 100 CALM      30.14S
FT SMITH       CLOUDY    52  48  86 CALM      30.11F
LITTLE ROCK    CLOUDY    59  49  69 NW7       30.09R

......OKLAHOMA.......

CITY           SKY/WX    TMP DP  RH WIND       PRES   REMARKS
TULSA          PTCLDY    51  49  92 CALM      30.13R
MCALESTER      CLOUDY    50  46  86 CALM      30.13S
OKLAHOMA CITY  PTCLDY    51  49  92 CALM      30.14F

......IOWA............

CITY           SKY/WX    TMP DP  RH WIND       PRES   REMARKS
DES MOINES     NOT AVBL
QUAD CITIES    CLEAR     50  42  74 W5        29.92S

......ILLINOIS........

CITY           SKY/WX    TMP DP  RH WIND       PRES   REMARKS
QUINCY         NOT AVBL
CHICAGO        CLEAR     52  40  63 W14       29.84S



USA.gov is the U.S. government's official web portal to all federal, state and local government web resources and services.